Regional Weather Roundup
Issued by NWS

Home | Current Version | Previous Version | Text Only | Print | Product List | Glossary Off
Versions: 1 2 3 4 5 6 7 8 9 10 11 12 13 14 15 16 17 18 19 20 21 22 23 24 25 26 27 28 29 30 31 32 33 34 35 36 37 38 39 40 41 42 43 44 45 46 47 48 49 50

000
ASUS45 KABQ 270110
RWRNM
NEW MEXICO REGIONAL WEATHER ROUNDUP
NATIONAL WEATHER SERVICE ALBUQUERQUE NM
700 PM MDT THU MAY 26 2016

NOTE: "FAIR" MEANS FEW OR NO CLOUDS BELOW 12,000 FEET AGL WITH NO
       SIGNIFICANT WEATHER OR OBSTRUCTIONS TO VISION.

      THIS PRODUCT IS RELEASED AS TWO VERSIONS.  ONE VERSION NEAR
      THE TOP OF THE HOUR CONTAINING PRELIMINARY DATA FROM ALBUQUERQUE
      AND OTHER STATIONS.  A FINAL VERSION WITH ADDITIONAL DATA IS
      ISSUED ABOUT 10 MINUTES AFTER THE HOUR.

NMZ501-503-504-510>518-270200-
NORTHWEST PLATEAU/NORTHCENTRAL MOUNTAINS

CITY           SKY/WX    TMP DP  RH WIND       PRES   REMARKS
FARMINGTON     FAIR      60  27  28 W24G31    29.90R
LOS ALAMOS     FAIR      57   9  14 W15G21    29.95R
SANTA FE       FAIR      64   9  11 W18G36    29.89R
TAOS           CLOUDY    54  19  26 SW15G25   29.96R
ANGEL FIRE     FAIR      48  22  35 W20G28    29.98R

$$
NMZ402-403-502-505>509-270200-
WESTCENTRAL MOUNTAINS/SOUTHWEST MOUNTAINS

CITY           SKY/WX    TMP DP  RH WIND       PRES   REMARKS
GALLUP         FAIR      60  20  21 W20G29    29.96R
GRANTS         FAIR      60  17  18 W13G21    29.97R

$$
NMZ407-409-411-412-270200-
SOUTHERN DESERTS

CITY           SKY/WX    TMP DP  RH WIND       PRES   REMARKS
LORDSBURG      FAIR      73  12   9 W20G26    29.89S
DEMING         FAIR      76  15  10 W16G30    29.86S
LAS CRUCES     FAIR      76  13   9 W17G28    29.86S
HOLLOMAN AFB   FAIR      78  10   7 W20G25    29.82R
T OR C         FAIR      74   6   7 W17G24    29.85R

$$
NMZ519>523-270200-
CENTRAL VALLEYS/CENTRAL HIGHLANDS

CITY           SKY/WX    TMP DP  RH WIND       PRES   REMARKS
ALBUQUERQUE    FAIR      68  13  12 W18G30    29.87R
DOUBLE EAGLE   MOSUNNY   64  18  16 W23       29.91R
MORIARTY ARPT  FAIR      65   5   9 W17G28    29.90R
CLINES CORNERS FAIR      61   5  10 W28G40    29.89R
BELEN          NOT AVBL
SOCORRO        FAIR      72  11   9 W16       29.85R

$$
NMZ524>526-539-540-270200-
SOUTHCENTRAL MOUNTAINS

CITY           SKY/WX    TMP DP  RH WIND       PRES   REMARKS
RUIDOSO        NOT AVBL

$$
NMZ527>531-270200-
NORTHEAST HIGHLANDS/NORTHEAST PLAINS

CITY           SKY/WX    TMP DP  RH WIND       PRES   REMARKS
LAS VEGAS      FAIR      62   9  12 W24G33    29.88R
RATON          PTSUNNY   60  26  27 NW24G39   29.82R
CLAYTON        FAIR      75  15  10 SW18G26   29.73R

$$
NMZ532>537-270200-
EASTCENTRAL PLAINS

CITY           SKY/WX    TMP DP  RH WIND       PRES   REMARKS
TUCUMCARI      FAIR      80   8   6 SW21G32   29.70S
CANNON AFB     FAIR      79  11   7 W23G31    29.74R
CLOVIS AIRPORT FAIR      79  19  11 SW23G31   29.74S

$$
NMZ028-029-538-270200-
SOUTHEAST PLAINS

CITY           SKY/WX    TMP DP  RH WIND       PRES   REMARKS
ROSWELL        FAIR      84  15   7 W16       29.73S
CARLSBAD       FAIR      87  16   7 W22G29    29.70S


$$



USA.gov is the U.S. government's official web portal to all federal, state and local government web resources and services.